N5ATR Weather Reports


time (UTC)temp
C
wind
direction
speed
KPH
gust
KPH
rain 1hr
cm
rain 24hr
cm
rain mn
cm
humidity
%
barometer
mb
20260506103114 3 241 9.7 11.3 0.00 0.00 0.00 83 1012.2
20260506102612 3 241 9.7 12.9 0.00 0.00 0.00 82 1012.3
20260506102109 3 237 8.0 12.9 0.00 0.00 0.00 82 1012.4
20260506101606 3 253 4.8 6.4 0.00 0.00 0.00 82 1012.3
20260506101103 3 216 9.7 12.9 0.00 0.00 0.00 82 1012.2
20260506100601 3 258 6.4 9.7 0.00 0.00 0.00 82 1012.4
20260506100059 3 226 6.4 6.4 0.00 0.00 0.00 82 1012.3
20260506095557 3 287 4.8 4.8 0.00 0.00 0.00 81 1012.4
20260506095053 4 239 6.4 9.7 0.00 0.00 0.00 81 1012.4
20260506094551 3 252 8.0 11.3 0.00 0.00 0.00 81 1012.5
20260506094049 3 290 6.4 6.4 0.00 0.00 0.00 82 1012.3
20260506093547 3 240 9.7 11.3 0.00 0.00 0.00 83 1012.5
20260506093044 3 228 6.4 11.3 0.00 0.00 0.00 86 1012.3
20260506092542 3 277 9.7 11.3 0.00 0.00 0.00 87 1012.4
20260506092038 3 271 6.4 9.7 0.00 0.00 0.00 86 1012.5
20260506091537 3 279 6.4 6.4 0.00 0.00 0.00 85 1012.2
20260506091034 3 305 6.4 6.4 0.00 0.00 0.00 83 1012.2
20260506090532 3 252 8.0 9.7 0.00 0.00 0.00 82 1012.5
20260506090028 3 250 6.4 11.3 0.00 0.00 0.00 81 1012.3
20260506085525 3 266 3.2 4.8 0.00 0.00 0.00 78 1012.5
20260506085021 3 235 4.8 4.8 0.00 0.00 0.00 80 1012.5
20260506084518 3 270 6.4 6.4 0.00 0.00 0.00 79 1012.8
20260506084014 3 291 3.2 3.2 0.00 0.00 0.00 84 1012.4
20260506083512 3 291 3.2 4.8 0.00 0.00 0.00 84 1012.5
20260506083009 3 296 3.2 4.8 0.00 0.00 0.00 85 1012.7
20260506082506 3 318 1.6 3.2 0.00 0.00 0.00 84 1012.7
20260506082001 3 290 3.2 3.2 0.00 0.00 0.00 83 1012.7
20260506081500 4 265 3.2 3.2 0.00 0.00 0.00 79 1012.8
20260506080957 4 273 3.2 4.8 0.00 0.00 0.00 79 1012.8
20260506080454 4 311 3.2 3.2 0.00 0.00 0.00 79 1012.9
20260506073437 5 328 3.2 3.2 0.00 0.00 0.00 81 1013.0
20260506072935 5 321 3.2 4.8 0.00 0.00 0.00 80 1013.0
20260506072432 5 311 4.8 4.8 0.00 0.00 0.00 80 1012.9
20260506071930 5 322 4.8 4.8 0.00 0.00 0.00 80 1013.0
20260506071427 5 321 3.2 4.8 0.00 0.00 0.00 81 1012.9
20260506070924 5 320 4.8 4.8 0.00 0.00 0.00 82 1013.0
20260506070421 5 344 1.6 1.6 0.00 0.00 0.00 81 1013.2
20260506062358 6 277 3.2 4.8 0.00 0.00 0.00 82 1013.0
20260506061854 5 284 4.8 6.4 0.00 0.00 0.00 84 1013.0
20260506061351 5 293 6.4 6.4 0.00 0.00 0.00 85 1012.8
20260506060849 5 351 3.2 3.2 0.00 0.00 0.00 85 1012.8
20260506060347 5 299 8.0 9.7 0.00 0.00 0.00 85 1012.7
20260506051319 5 297 6.4 6.4 0.00 0.08 0.08 85 1012.9
20260506050816 5 316 8.0 9.7 0.00 0.08 0.08 85 1012.7
20260506050314 5 286 6.4 6.4 0.00 0.08 0.08 85 1012.9
20260506044804 5 301 11.3 14.5 0.00 0.08 0.08 88 1012.7
20260506044302 5 334 8.0 9.7 0.00 0.08 0.08 89 1012.4
20260506043758 5 334 8.0 9.7 0.00 0.08 0.08 90 1012.7
20260506043256 5 296 4.8 4.8 0.00 0.08 0.08 90 1012.4
20260506042755 5 339 4.8 4.8 0.00 0.08 0.08 91 1012.7
20260506042253 5 330 1.6 3.2 0.00 0.08 0.08 91 1012.7
20260506041751 5 354 4.8 6.4 0.13 0.08 0.08 91 1012.8
20260506041248 5 307 4.8 4.8 0.13 0.08 0.08 91 1012.8
20260506040745 5 343 3.2 3.2 0.00 0.05 0.05 91 1012.3
20260506040242 5 344 8.0 12.9 0.00 0.05 0.05 90 1012.7
20260506035739 5 340 6.4 12.9 0.18 0.05 0.05 90 1012.3
20260506035236 5 322 6.4 9.7 0.18 0.05 0.05 89 1012.3
20260506034733 5 317 14.5 17.7 0.00 0.03 0.03 87 1012.5
20260506034230 6 320 14.5 16.1 0.00 0.03 0.03 83 1011.9
20260506033727 6 294 9.7 14.5 0.00 0.03 0.03 81 1011.8
20260506033224 6 304 14.5 17.7 0.00 0.03 0.03 80 1011.6
20260506032721 6 318 8.0 11.3 0.00 0.03 0.03 78 1011.3
20260506032218 6 21 14.5 20.9 0.00 0.03 0.03 78 1011.8
20260506031714 6 316 8.0 12.9 0.00 0.03 0.03 78 1011.7
20260506031212 7 297 11.3 12.9 0.00 0.03 0.03 77 1011.6
20260506030710 7 318 11.3 14.5 0.00 0.03 0.03 76 1011.7
20260506030207 7 336 11.3 12.9 0.00 0.03 0.03 75 1011.6
20260506025704 7 310 11.3 14.5 0.00 0.03 0.03 73 1011.4
20260506025200 7 315 14.5 16.1 0.00 0.03 0.03 71 1011.3
20260506024657 7 297 16.1 20.9 0.00 0.03 0.03 71 1011.4
20260506024154 8 347 9.7 12.9 0.00 0.03 0.03 70 1011.3
20260506023650 8 254 16.1 20.9 0.00 0.03 0.03 70 1011.1
20260506023147 8 318 9.7 11.3 0.00 0.03 0.03 69 1010.9
20260506022644 8 335 3.2 3.2 0.00 0.03 0.03 69 1010.6
20260506022142 8 294 3.2 4.8 0.00 0.03 0.03 69 1010.8
20260506021640 8 322 1.6 3.2 0.00 0.03 0.03 68 1010.6
20260506021136 8 329 3.2 3.2 0.00 0.03 0.03 68 1010.5
20260506020633 8 304 1.6 3.2 0.00 0.03 0.03 67 1010.3
20260506020131 8 314 3.2 3.2 0.00 0.03 0.03 67 1010.3
20260506015629 8 343 1.6 1.6 0.00 0.03 0.03 66 1010.2
20260506015125 9 271 3.2 3.2 0.00 0.03 0.03 64 1010.2
20260506014623 10 263 3.2 3.2 0.00 0.03 0.03 63 1010.0
20260506014118 10 276 6.4 6.4 0.00 0.03 0.03 63 1010.1
20260506013617 9 313 6.4 6.4 0.00 0.03 0.03 63 1010.0
20260506013113 9 295 8.0 9.7 0.00 0.03 0.03 63 1009.6
20260506012609 9 296 9.7 11.3 0.00 0.03 0.03 62 1009.8
20260506012106 10 327 11.3 14.5 0.00 0.03 0.03 60 1010.1
20260506011604 10 271 9.7 11.3 0.00 0.03 0.03 58 1010.0
20260506011059 11 270 16.1 20.9 0.00 0.03 0.03 56 1010.1
20260506010554 11 274 6.4 6.4 0.00 0.03 0.03 58 1009.6
20260506010050 11 257 6.4 6.4 0.00 0.03 0.03 58 1009.5
20260506005547 11 265 4.8 6.4 0.00 0.03 0.03 58 1009.5
20260506005043 11 280 6.4 9.7 0.00 0.03 0.03 58 1010.0
20260506004540 11 295 9.7 14.5 0.00 0.03 0.03 57 1009.6
20260506004037 11 228 9.7 14.5 0.00 0.03 0.03 56 1009.6
20260506003534 11 230 8.0 11.3 0.00 0.03 0.03 56 1009.7
20260506003030 11 255 9.7 11.3 0.00 0.03 0.03 55 1009.3
20260506002526 12 290 4.8 4.8 0.00 0.03 0.03 54 1009.6
20260506002022 11 256 6.4 6.4 0.00 0.03 0.03 55 1009.6
20260506001518 12 254 9.7 12.9 0.00 0.03 0.03 53 1009.6
20260506001016 13 241 6.4 6.4 0.00 0.03 0.03 50 1009.7
20260506000513 13 315 14.5 20.9 0.00 0.03 0.03 48 1009.3
20260506000010 13 259 14.5 25.7 0.00 0.03 0.03 48 1009.3
20260505235508 13 287 11.3 14.5 0.00 0.03 0.03 50 1009.3
20260505235004 13 262 9.7 11.3 0.00 0.03 0.03 49 1009.6
20260505234502 13 310 14.5 17.7 0.00 0.03 0.03 48 1009.5
20260505233958 14 261 9.7 12.9 0.00 0.03 0.03 46 1009.5
20260505233456 14 230 12.9 17.7 0.00 0.03 0.03 47 1009.3
20260505232953 14 262 9.7 12.9 0.00 0.03 0.03 47 1009.5
20260505232451 13 241 9.7 11.3 0.00 0.03 0.03 50 1009.6
20260505231948 12 229 9.7 11.3 0.00 0.03 0.03 57 1009.3
20260505231445 13 295 8.0 9.7 0.00 0.03 0.03 56 1009.3
20260505230944 13 248 8.0 9.7 0.00 0.03 0.03 54 1009.6
20260505230441 13 275 11.3 16.1 0.00 0.03 0.03 54 1009.5
20260505225937 12 242 6.4 9.7 0.00 0.03 0.03 58 1009.3
20260505225434 12 301 9.7 12.9 0.00 0.03 0.03 59 1009.6
20260505224930 11 272 12.9 16.1 0.00 0.03 0.03 62 1009.6
20260505224427 12 260 9.7 9.7 0.00 0.03 0.03 60 1009.6
20260505223924 11 277 12.9 12.9 0.00 0.03 0.03 64 1009.8
20260505223421 11 283 8.0 9.7 0.00 0.03 0.03 64 1010.3
20260505222918 11 292 11.3 12.9 0.00 0.03 0.03 64 1010.3
20260505222414 11 225 14.5 16.1 0.00 0.03 0.03 59 1010.2
20260505221910 12 190 22.5 29.0 0.00 0.03 0.03 56 1010.0
20260505221408 11 290 11.3 14.5 0.00 0.03 0.03 60 1010.2
20260505220904 12 261 17.7 20.9 0.00 0.03 0.03 57 1010.1
20260505220401 12 303 9.7 12.9 0.00 0.03 0.03 57 1010.1
20260505215859 12 252 17.7 20.9 0.00 0.03 0.03 56 1010.1
20260505215357 12 273 16.1 20.9 0.00 0.03 0.03 58 1010.1
20260505214855 13 288 12.9 16.1 0.00 0.03 0.03 57 1010.1
20260505214352 13 230 11.3 14.5 0.00 0.03 0.03 55 1009.8
20260505213849 13 225 12.9 17.7 0.00 0.03 0.03 55 1010.0
20260505213347 13 237 9.7 12.9 0.00 0.03 0.03 56 1010.2
20260505212842 13 228 20.9 24.1 0.00 0.03 0.03 58 1010.5
20260505212340 14 268 19.3 25.7 0.00 0.03 0.03 54 1010.3
20260505211836 14 245 12.9 17.7 0.00 0.03 0.03 54 1010.3
20260505211334 12 187 14.5 16.1 0.00 0.03 0.03 57 1010.2
20260505210830 12 249 12.9 16.1 0.00 0.03 0.03 58 1010.3
20260505210327 12 246 12.9 14.5 0.00 0.03 0.03 58 1010.0
20260505205824 12 262 11.3 16.1 0.00 0.03 0.03 60 1010.3
20260505205322 13 271 11.3 17.7 0.00 0.03 0.03 58 1010.3
20260505204818 12 211 6.4 9.7 0.00 0.03 0.03 62 1010.8
20260505204317 11 289 6.4 6.4 0.00 0.03 0.03 65 1010.8
20260505203814 12 276 14.5 17.7 0.00 0.03 0.03 63 1010.8
20260505203310 12 267 9.7 14.5 0.00 0.03 0.03 61 1010.8
20260505202806 12 313 9.7 12.9 0.00 0.03 0.03 61 1011.1
20260505202306 12 218 11.3 14.5 0.00 0.03 0.03 61 1010.9
20260505201759 12 156 6.4 12.9 0.00 0.03 0.03 63 1010.7
20260505201257 13 262 9.7 14.5 0.00 0.03 0.03 59 1010.8
20260505200755 12 125 11.3 17.7 0.00 0.03 0.03 63 1010.6
20260505200252 14 246 11.3 17.7 0.00 0.03 0.03 59 1010.8
20260505195747 13 272 11.3 14.5 0.00 0.03 0.03 62 1010.8
20260505195245 12 230 14.5 16.1 0.00 0.03 0.03 64 1010.7
20260505194742 12 250 12.9 16.1 0.00 0.03 0.03 64 1010.8
20260505194238 12 232 14.5 14.5 0.00 0.03 0.03 67 1010.6
20260505193734 11 280 12.9 16.1 0.00 0.03 0.03 74 1010.9
20260505193232 11 264 9.7 12.9 0.00 0.03 0.03 80 1010.8
20260505192730 11 290 8.0 14.5 0.00 0.03 0.03 86 1010.9
20260505192228 10 239 6.4 9.7 0.00 0.03 0.03 89 1011.1
20260505191725 10 235 8.0 11.3 0.13 0.03 0.03 91 1010.9
20260505191224 8 217 4.8 6.4 0.13 0.03 0.03 90 1011.1
20260505190720 9 234 16.1 17.7 0.00 0.00 0.00 83 1011.3
20260505190219 11 152 12.9 14.5 0.00 0.00 0.00 74 1010.9
20260505185716 11 218 9.7 12.9 0.00 0.00 0.00 60 1011.1
20260505185213 12 257 17.7 22.5 0.00 0.00 0.00 57 1010.8
20260505184709 13 231 12.9 17.7 0.00 0.00 0.00 55 1010.8
20260505184207 13 212 12.9 17.7 0.00 0.00 0.00 52 1010.6
20260505183703 13 254 9.7 12.9 0.00 0.00 0.00 54 1010.8
20260505183200 13 251 14.5 17.7 0.00 0.00 0.00 53 1010.8
20260505182656 13 214 8.0 9.7 0.00 0.00 0.00 55 1010.8
20260505182154 13 252 12.9 14.5 0.00 0.00 0.00 55 1011.1
20260505181650 13 222 9.7 12.9 0.00 0.00 0.00 55 1011.2
20260505181148 13 209 6.4 9.7 0.00 0.00 0.00 55 1011.1
20260505180643 13 237 8.0 11.3 0.00 0.00 0.00 54 1010.9
20260505180141 13 229 9.7 11.3 0.00 0.00 0.00 52 1010.9
20260505175637 12 133 4.8 4.8 0.00 0.00 0.00 54 1010.9
20260505175133 12 247 4.8 6.4 0.00 0.00 0.00 55 1011.1
20260505174630 13 225 4.8 6.4 0.00 0.00 0.00 53 1011.1
20260505174126 13 162 9.7 12.9 0.00 0.00 0.00 53 1011.2
20260505173623 12 280 4.8 4.8 0.00 0.00 0.00 54 1011.3
20260505173120 12 250 3.2 3.2 0.00 0.00 0.00 55 1011.1
20260505172618 12 253 6.4 6.4 0.00 0.00 0.00 55 1011.3
20260505172114 12 241 14.5 14.5 0.00 0.00 0.00 54 1011.4
20260505171609 12 255 8.0 11.3 0.00 0.00 0.00 54 1011.6
20260505171106 11 151 3.2 3.2 0.00 0.00 0.00 57 1011.4
20260505170603 11 32 0.0 0.0 0.00 0.00 0.00 56 1011.4
20260505170059 11 196 1.6 1.6 0.00 0.00 0.00 56 1011.6
20260505165554 11 315 6.4 6.4 0.00 0.00 0.00 58 1011.4
20260505165051 11 10 1.6 3.2 0.00 0.00 0.00 59 1011.4
20260505164546 11 299 6.4 6.4 0.00 0.00 0.00 57 1011.3
20260505164044 10 273 3.2 3.2 0.00 0.00 0.00 59 1011.6
20260505163543 10 316 6.4 6.4 0.00 0.00 0.00 60 1011.7
20260505163040 9 322 6.4 9.7 0.00 0.00 0.00 62 1011.7
20260505162538 10 349 9.7 12.9 0.00 0.00 0.00 61 1011.8
20260505162035 10 321 12.9 14.5 0.00 0.00 0.00 60 1011.7
20260505161532 10 323 4.8 6.4 0.00 0.00 0.00 61 1012.3
20260505161029 9 326 6.4 9.7 0.00 0.00 0.00 61 1011.8
20260505160527 9 325 8.0 11.3 0.00 0.00 0.00 60 1012.1
20260505153003 10 3 6.4 9.7 0.00 0.00 0.00 59 1012.2
20260505152501 10 310 8.0 12.9 0.00 0.00 0.00 60 1012.1
20260505151956 9 334 8.0 11.3 0.00 0.00 0.00 59 1011.9
20260505151451 9 310 6.4 9.7 0.00 0.00 0.00 61 1012.1
20260505150949 8 287 6.4 11.3 0.00 0.00 0.00 62 1012.3
20260505150445 8 330 8.0 11.3 0.00 0.00 0.00 62 1012.1
20260505140415 10 305 8.0 9.7 0.00 0.00 0.00 51 1012.4
20260505124829 9 290 6.4 9.7 0.00 0.00 0.00 53 1011.7
20260505124326 9 250 4.8 4.8 0.00 0.00 0.00 52 1011.8
20260505123822 9 261 4.8 6.4 0.00 0.00 0.00 51 1011.7
20260505123319 8 274 4.8 4.8 0.00 0.00 0.00 50 1011.9
20260505122815 8 223 6.4 9.7 0.00 0.00 0.00 50 1011.9
20260505122312 8 252 4.8 4.8 0.00 0.00 0.00 50 1011.9
20260505121809 8 224 3.2 3.2 0.00 0.00 0.00 49 1011.6
20260505121306 9 319 1.6 1.6 0.00 0.00 0.00 48 1011.9
20260505120802 9 295 4.8 6.4 0.00 0.00 0.00 48 1011.7
20260505120258 9 259 4.8 4.8 0.00 0.00 0.00 47 1011.6
20260505115757 8 325 3.2 3.2 0.00 0.00 0.00 47 1011.7
20260505115254 9 307 0.0 1.6 0.00 0.00 0.00 47 1011.4
20260505114752 9 271 3.2 3.2 0.00 0.00 0.00 46 1011.3
20260505114248 9 234 4.8 6.4 0.00 0.00 0.00 45 1011.4
20260505113745 8 49 3.2 3.2 0.00 0.00 0.00 46 1011.6
20260505113241 8 356 0.0 0.0 0.00 0.00 0.00 47 1011.3
20260505112737 8 352 0.0 0.0 0.00 0.00 0.00 46 1011.4
20260505112235 9 351 0.0 0.0 0.00 0.00 0.00 45 1011.9
20260505111735 9 5 0.0 0.0 0.00 0.00 0.00 42 1011.7
20260505111231 10 358 0.0 0.0 0.00 0.00 0.00 42 1011.8
20260505110727 10 350 0.0 0.0 0.00 0.00 0.00 41 1011.8
20260505110225 10 342 1.6 1.6 0.00 0.00 0.00 40 1011.7